Date String (YYYY-MM-DD hh:mm:ss) UTC,Instrument flags,Ambient pressure (hPa),Sample flow (lpm),Bypass flow (lpm),Sample temperature (°C),Ambient temperature (°C),ASC tube jacket temperature (°C),LED temperature (°C),Box temperature (°C),Sample RH (%),Span deviation,Mass concentration (μg/m³),Mass concentration (μg/m³),Mass concentration (μg/m³)
DateTimeUTC,F1_M11,P_M11,Q1_M11,Q2_M11,T1_M11,T2_M11,T3_M11,T4_M11,T5_M11,U1_M11,ZSPAN_M11,X0_M11,X2_M11,X1_M11
2021-10-09 18:00:00,,0820.2,5.00,0.00,28.9,28.2,00.0,38.1,30.7,13.7,0000.0,0014.17,0002.18,0000.82
2021-10-09 18:01:00,,0820.3,4.99,0.00,28.9,28.2,00.0,38.1,30.7,13.7,0000.0,0014.16,0002.30,0000.83
2021-10-09 18:02:00,,0820.4,4.99,0.00,28.9,28.2,00.0,38.1,30.7,13.6,0000.0,0014.30,0002.32,0000.83
2021-10-09 18:03:00,,0820.5,5.01,0.00,28.9,28.2,00.0,38.1,30.7,13.9,0000.0,0013.73,0002.27,0000.83
2021-10-09 18:04:00,,0820.6,4.99,0.00,28.9,28.2,00.0,38.1,30.7,14.0,0000.0,0014.17,0002.26,0000.83
2021-10-09 18:05:00,,0820.4,5.01,0.00,28.9,28.2,00.0,38.1,30.7,13.9,0000.0,0013.77,0002.30,0000.84
2021-10-09 18:06:00,,0820.5,4.99,0.00,28.9,28.2,00.0,38.1,30.7,13.6,0000.0,0013.63,0002.28,0000.84
2021-10-09 18:07:00,,0820.6,5.01,0.00,28.9,28.2,00.0,38.1,30.7,13.8,0000.0,0012.77,0002.17,0000.82
2021-10-09 18:08:00,,0820.5,4.99,0.00,28.9,28.2,00.0,38.1,30.7,13.8,0000.0,0010.09,0002.03,0000.79
2021-10-09 18:09:00,,0820.6,5.00,0.00,28.9,28.2,00.0,38.1,30.7,13.6,0000.0,0008.88,0001.99,0000.78
2021-10-09 18:10:00,,0820.5,5.02,0.00,28.9,28.2,00.0,38.1,30.7,13.6,0000.0,0008.86,0001.90,0000.77
2021-10-09 18:11:00,,0820.6,4.99,0.00,28.9,28.2,00.0,38.1,30.7,13.6,0000.0,0007.77,0001.77,0000.75
2021-10-09 18:12:00,,0820.6,5.00,0.00,28.9,28.2,00.0,38.2,30.7,13.6,0000.0,0006.77,0001.70,0000.74
2021-10-09 18:13:00,,0820.7,5.01,0.00,28.9,28.2,00.0,38.1,30.7,13.7,0000.0,0006.52,0001.66,0000.74
2021-10-09 18:14:00,,0820.8,4.98,0.00,28.9,28.2,00.0,38.1,30.7,13.2,0000.0,0006.51,0001.68,0000.74
2021-10-09 18:15:00,,0820.8,5.01,0.00,28.9,28.2,00.0,38.1,30.7,13.0,0000.0,0005.21,0001.67,0000.74
2021-10-09 18:16:00,,0820.8,4.99,0.00,28.9,28.2,00.0,38.1,30.7,13.4,0000.0,0005.06,0001.59,0000.72
2021-10-09 18:17:00,,0820.8,5.00,0.00,28.9,28.2,00.0,38.1,30.7,13.6,0000.0,0005.80,0001.54,0000.71
2021-10-09 18:18:00,,0820.9,5.01,0.00,28.9,28.2,00.0,38.1,30.7,13.5,0000.0,0006.16,0001.50,0000.71
2021-10-09 18:19:00,,0821.0,5.00,0.00,29.0,28.2,00.0,38.1,30.7,13.4,0000.0,0006.77,0001.43,0000.71
2021-10-09 18:20:00,,0821.0,5.00,0.00,29.0,28.2,00.0,38.2,30.7,13.4,0000.0,0006.95,0001.38,0000.70
2021-10-09 18:21:00,,0820.8,5.00,0.00,29.0,28.2,00.0,38.2,30.7,12.9,0000.0,0006.79,0001.37,0000.70
2021-10-09 18:22:00,,0820.9,5.00,0.00,29.0,28.2,00.0,38.2,30.7,12.9,0000.0,0007.95,0001.42,0000.71
2021-10-09 18:23:00,,0820.9,5.00,0.00,29.0,28.2,00.0,38.2,30.7,12.9,0000.0,0007.52,0001.29,0000.70
2021-10-09 18:24:00,,0820.9,5.00,0.00,29.0,28.2,00.0,38.2,30.7,13.0,0000.0,0007.37,0001.20,0000.68
2021-10-09 18:25:00,,0820.9,5.01,0.00,29.0,28.2,00.0,38.2,30.8,13.2,0000.0,0007.07,0001.10,0000.66
2021-10-09 18:26:00,,0820.9,4.99,0.00,29.0,28.2,00.0,38.2,30.8,13.4,0000.0,0006.91,0001.03,0000.66
2021-10-09 18:27:00,,0820.9,5.00,0.00,29.1,28.1,00.0,38.2,30.8,13.2,0000.0,0006.81,0001.01,0000.66
2021-10-09 18:28:00,,0820.9,5.00,0.00,29.1,28.1,00.0,38.2,30.8,13.0,0000.0,0005.69,0000.99,0000.65
2021-10-09 18:29:00,,0820.9,4.99,0.00,29.1,28.1,00.0,38.2,30.8,13.0,0000.0,0005.21,0001.00,0000.66
2021-10-09 18:30:00,,0820.9,5.01,0.00,29.1,28.2,00.0,38.2,30.8,13.0,0000.0,0004.34,0001.01,0000.66
2021-10-09 18:31:00,,0820.9,4.99,0.00,29.1,28.2,00.0,38.2,30.8,12.4,0000.0,0003.58,0000.95,0000.65
2021-10-09 18:32:00,,0820.9,4.99,0.00,29.1,28.2,00.0,38.2,30.9,11.6,0000.0,0003.48,0000.95,0000.65
2021-10-09 18:33:00,,0820.9,5.00,0.00,29.2,28.2,00.0,38.2,30.8,11.8,0000.0,0002.79,0000.90,0000.65
2021-10-09 18:34:00,,0820.9,5.01,0.00,29.2,28.2,00.0,38.3,30.9,12.3,0000.0,0002.81,0000.91,0000.66
2021-10-09 18:35:00,,0820.9,4.99,0.00,29.2,28.2,00.0,38.3,30.9,12.7,0000.0,0002.88,0000.94,0000.67
2021-10-09 18:36:00,,0821.0,5.00,0.00,29.2,28.2,00.0,38.3,30.9,13.0,0000.0,0002.92,0000.96,0000.67
2021-10-09 18:37:00,,0820.9,4.98,0.00,29.2,28.2,00.0,38.3,30.9,12.6,0000.0,0002.99,0000.98,0000.67
2021-10-09 18:38:00,,0820.9,5.01,0.00,29.2,28.3,00.0,38.3,30.9,12.6,0000.0,0003.10,0001.02,0000.67
2021-10-09 18:39:00,,0820.9,5.00,0.00,29.2,28.2,00.0,38.3,30.9,12.6,0000.0,0003.11,0001.03,0000.68
2021-10-09 18:40:00,,0820.9,5.00,0.00,29.3,28.3,00.0,38.3,30.9,12.0,0000.0,0003.07,0001.05,0000.69
2021-10-09 18:41:00,,0820.9,5.00,0.00,29.3,28.3,00.0,38.3,31.0,11.2,0000.0,0004.34,0001.10,0000.71
2021-10-09 18:42:00,,0820.9,5.01,0.00,29.3,28.3,00.0,38.3,31.0,11.6,0000.0,0004.72,0001.16,0000.72
2021-10-09 18:43:00,,0820.8,4.99,0.00,29.3,28.3,00.0,38.4,31.0,12.4,0000.0,0004.73,0001.15,0000.72
2021-10-09 18:44:00,,0820.8,5.00,0.00,29.3,28.3,00.0,38.4,31.0,12.8,0000.0,0003.90,0001.19,0000.73
2021-10-09 18:45:00,,0820.8,5.01,0.00,29.3,28.3,00.0,38.4,31.0,12.3,0000.0,0004.38,0001.26,0000.74
2021-10-09 18:46:00,,0820.9,5.01,0.00,29.3,28.3,00.0,38.4,31.0,11.8,0000.0,0004.71,0001.34,0000.76
2021-10-09 18:47:00,,0820.9,4.98,0.00,29.3,28.3,00.0,38.4,31.0,12.3,0000.0,0005.71,0001.41,0000.79
2021-10-09 18:48:00,,0820.9,5.01,0.00,29.4,28.3,00.0,38.4,31.0,12.6,0000.0,0006.39,0001.45,0000.81
2021-10-09 18:49:00,,0820.9,4.99,0.00,29.4,28.3,00.0,38.4,31.0,13.5,0000.0,0006.66,0001.48,0000.82
2021-10-09 18:50:00,,0820.9,5.00,0.00,29.4,28.3,00.0,38.4,31.0,13.7,0000.0,0007.09,0001.58,0000.83
2021-10-09 18:51:00,,0820.8,4.99,0.00,29.4,28.3,00.0,38.4,31.1,13.7,0000.0,0007.11,0001.61,0000.84
2021-10-09 18:52:00,,0820.7,5.01,0.00,29.4,28.3,00.0,38.4,31.1,13.6,0000.0,0005.92,0001.62,0000.84
2021-10-09 18:53:00,,0820.7,5.01,0.00,29.4,28.3,00.0,38.5,31.0,13.4,0000.0,0005.82,0001.62,0000.85
2021-10-09 18:54:00,,0820.7,4.99,0.00,29.4,28.3,00.0,38.5,31.0,12.9,0000.0,0005.48,0001.60,0000.86
2021-10-09 18:55:00,,0820.8,5.00,0.00,29.4,28.4,00.0,38.5,31.0,13.1,0000.0,0005.41,0001.61,0000.87
2021-10-09 18:56:00,,0820.8,5.01,0.00,29.3,28.4,00.0,38.5,31.0,13.5,0000.0,0005.04,0001.57,0000.88
2021-10-09 18:57:00,,0820.8,5.00,0.00,29.3,28.4,00.0,38.5,31.0,13.6,0000.0,0004.78,0001.56,0000.89
2021-10-09 18:58:00,,0820.9,5.00,0.00,29.3,28.4,00.0,38.5,31.0,13.3,0000.0,0004.22,0001.56,0000.90
2021-10-09 18:59:00,,0820.9,5.00,0.00,29.3,28.4,00.0,38.5,30.9,13.9,0000.0,0003.29,0001.53,0000.90
